Regional Weather Roundup
Issued by NWS

Home | Current Version | Previous Version | Text Only | Print | Product List | Glossary On
Versions: 1 2 3 4 5 6 7 8 9 10 11 12 13 14 15 16 17 18 19 20 21 22 23 24 25 26 27 28 29 30 31 32 33 34 35 36 37 38 39 40 41 42 43 44 45 46 47 48 49 50
000
ASUS45 KABQ 211510
RWRNM
WEATHER ROUNDUP FOR NEW MEXICO
NATIONAL WEATHER SERVICE ALBUQUERQUE NM
900 AM MDT TUE OCT 21 2014

NOTE: "FAIR" MEANS FEW OR NO CLOUDS BELOW 12,000 FEET AGL WITH NO
       SIGNIFICANT WEATHER OR OBSTRUCTIONS TO VISION.

      THIS PRODUCT IS RELEASED AS TWO VERSIONS.  ONE VERSION NEAR
      THE TOP OF THE HOUR CONTAINING PRELIMINARY DATA FROM ALBUQUERQUE
      AND OTHER STATIONS.  A FINAL VERSION WITH ADDITIONAL DATA IS
      ISSUED ABOUT 10 MINUTES AFTER THE HOUR.

NMZ501-503-504-510>518-211600-
NORTHWEST PLATEAU/NORTHCENTRAL MOUNTAINS

CITY           SKY/WX    TMP DP  RH WIND       PRES   REMARKS
FARMINGTON     CLOUDY    52  44  74 SE8       30.14R
LOS ALAMOS     DRIZZLE   47  47 100 CALM      30.25S
SANTA FE       CLOUDY    50  47  89 E5        30.22R
TAOS           CLOUDY    43  36  75 NW5       30.25S
ANGEL FIRE     FOG       34  32  94 CALM      30.31S VSB 3/4

$$
NMZ402-403-502-505>509-211600-
WESTCENTRAL MOUNTAINS/SOUTHWEST MOUNTAINS

CITY           SKY/WX    TMP DP  RH WIND       PRES   REMARKS
GALLUP         CLOUDY    41  39  93 CALM      30.20R
GRANTS         SUNNY     45  39  81 NW5       30.22R
SILVER CITY    PTSUNNY   55  50  82 E7        30.17R

$$
NMZ407-409-411-412-211600-
SOUTHERN DESERTS

CITY           SKY/WX    TMP DP  RH WIND       PRES   REMARKS
LORDSBURG      PTSUNNY   54  52  94 MISG      30.10S
DEMING         SUNNY     57  54  89 E6        30.12R
LAS CRUCES     SUNNY     59  54  84 CALM      30.13R
HOLLOMAN AFB   MOSUNNY   55  55 100 CALM      30.12R
T OR C         CLOUDY    55  51  86 N6        30.14R

$$
NMZ519>523-211600-
CENTRAL VALLEYS/CENTRAL HIGHLANDS

CITY           SKY/WX    TMP DP  RH WIND       PRES   REMARKS
ALBUQUERQUE    PTSUNNY   53  47  79 S7        30.17R
DOUBLE EAGLE   PTSUNNY   52  48  87 CALM      30.19R
MORIARTY ARPT  FAIR      52  47  85 CALM      30.23R
CLINES CORNERS PTSUNNY   51  46  83 SE9       30.22R
BELEN          PTSUNNY   52  49  89 CALM      30.18R
SOCORRO        FAIR      54  49  85 N5        30.16R

$$
NMZ524>526-539-540-211600-
SOUTHCENTRAL MOUNTAINS

CITY           SKY/WX    TMP DP  RH WIND       PRES   REMARKS
RUIDOSO        NOT AVBL

$$
NMZ527>531-211600-
NORTHEAST HIGHLANDS/NORTHEAST PLAINS

CITY           SKY/WX    TMP DP  RH WIND       PRES   REMARKS
LAS VEGAS      CLOUDY    50  45  83 SW6       30.24R
RATON          MOSUNNY   48  41  76 E5        30.20R
CLAYTON        SUNNY     59  46  62 SW12      30.16R

$$
NMZ532>537-211600-
EASTCENTRAL PLAINS

CITY           SKY/WX    TMP DP  RH WIND       PRES   REMARKS
TUCUMCARI      MOSUNNY   59  49  69 SW5       30.15R
CANNON AFB     SUNNY     61  53  74 E2        30.17R
CLOVIS AIRPORT NOT AVBL

$$
NMZ028-029-538-211600-
SOUTHEAST PLAINS

CITY           SKY/WX    TMP DP  RH WIND       PRES   REMARKS
ROSWELL        PTSUNNY   59  56  89 N7        30.13R
CARLSBAD       CLOUDY    63  59  87 CALM      30.11S FOG
HOBBS          PTSUNNY   59  57  94 E6        30.16R


$$


USA.gov is the U.S. government's official web portal to all federal, state and local government web resources and services.